TimeCDT,TemperatureF,Dew PointF,Humidity,Sea Level PressureIn,VisibilityMPH,Wind Direction,Wind SpeedMPH,Gust SpeedMPH,PrecipitationIn,Events,Conditions,WindDirDegrees,DateUTC
12:52 AM,48.9,45.0,86,30.09,10.0,Calm,Calm,-,N/A,,Clear,0,2013-10-08 05:52:00
1:52 AM,46.9,44.1,90,30.10,10.0,Calm,Calm,-,N/A,,Clear,0,2013-10-08 06:52:00
2:52 AM,45.0,43.0,93,30.11,10.0,Calm,Calm,-,N/A,,Clear,0,2013-10-08 07:52:00
3:52 AM,44.1,42.1,93,30.11,10.0,Calm,Calm,-,N/A,,Clear,0,2013-10-08 08:52:00
4:52 AM,44.1,42.1,93,30.12,10.0,Calm,Calm,-,N/A,,Clear,0,2013-10-08 09:52:00
5:52 AM,43.0,42.1,97,30.13,10.0,Calm,Calm,-,N/A,,Clear,0,2013-10-08 10:52:00
6:52 AM,42.1,39.9,92,30.14,10.0,Calm,Calm,-,N/A,,Clear,0,2013-10-08 11:52:00
7:52 AM,45.0,43.0,93,30.15,10.0,East,3.5,-,N/A,,Clear,90,2013-10-08 12:52:00
8:52 AM,54.0,46.9,77,30.16,10.0,Calm,Calm,-,N/A,,Clear,0,2013-10-08 13:52:00
9:52 AM,63.0,48.9,60,30.17,10.0,SSW,3.5,-,N/A,,Clear,200,2013-10-08 14:52:00
10:52 AM,68.0,48.0,49,30.16,10.0,South,4.6,-,N/A,,Clear,190,2013-10-08 15:52:00
11:52 AM,71.1,46.9,42,30.15,10.0,SSW,6.9,-,N/A,,Clear,200,2013-10-08 16:52:00
12:52 PM,75.0,45.0,34,30.13,10.0,South,9.2,-,N/A,,Clear,190,2013-10-08 17:52:00
1:52 PM,75.9,43.0,31,30.10,10.0,SSW,4.6,-,N/A,,Clear,210,2013-10-08 18:52:00
2:52 PM,77.0,42.1,29,30.09,10.0,SSW,9.2,-,N/A,,Clear,200,2013-10-08 19:52:00
3:52 PM,77.0,43.0,30,30.08,10.0,SSW,11.5,18.4,N/A,,Clear,210,2013-10-08 20:52:00
4:52 PM,75.9,43.0,31,30.08,10.0,South,8.1,16.1,N/A,,Clear,180,2013-10-08 21:52:00
5:52 PM,72.0,45.0,38,30.09,10.0,SSE,5.8,-,N/A,,Clear,160,2013-10-08 22:52:00
6:52 PM,64.9,46.0,50,30.10,10.0,SSE,5.8,-,N/A,,Clear,150,2013-10-08 23:52:00
7:52 PM,62.1,46.0,56,30.10,10.0,SSE,6.9,-,N/A,,Clear,160,2013-10-09 00:52:00
8:52 PM,61.0,46.0,58,30.10,10.0,SSE,6.9,-,N/A,,Clear,150,2013-10-09 01:52:00
9:52 PM,61.0,46.0,58,30.11,10.0,SSE,5.8,-,N/A,,Clear,150,2013-10-09 02:52:00
10:52 PM,55.9,46.0,69,30.12,10.0,ESE,3.5,-,N/A,,Clear,110,2013-10-09 03:52:00
11:52 PM,52.0,46.0,80,30.12,10.0,East,4.6,-,N/A,,Clear,100,2013-10-09 04:52:00